Stations météo

Publicité
Carcassonne, France (7635): Température de l'air & dewpoint: 17.03.2019 23:00:00 - 23.03.2019 23:00:00 (CET)Carcassonne, France (7635): Température de l'air 5cm: 17.03.2019 23:00:00 - 23.03.2019 23:00:00 (CET)Carcassonne, France (7635): Température de l'air -20cm & Température de l'air -100cm: 17.03.2019 23:00:00 - 23.03.2019 23:00:00 (CET)Carcassonne, France (7635): Vitesse du vent & gusts: 17.03.2019 23:00:00 - 23.03.2019 23:00:00 (CET)Carcassonne, France (7635): Direction du vent: 17.03.2019 23:00:00 - 23.03.2019 23:00:00 (CET)Carcassonne, France (7635): reduced air pressure: 17.03.2019 23:00:00 - 23.03.2019 23:00:00 (CET)Carcassonne, France (7635): visibility: 17.03.2019 23:00:00 - 23.03.2019 23:00:00 (CET)Carcassonne, France (7635): Ensoleillement: 17.03.2019 23:00:00 - 23.03.2019 23:00:00 (CET)Carcassonne, France (7635): Quantités de précipitations: 17.03.2019 23:00:00 - 23.03.2019 23:00:00 (CET)
Date & Time tt [°C] td [°C] tt 5cm [°C] tt -20cm [°C] tt -100cm [°C] ff [km/h] ff [knt] fx [km/h] fx [knt] dd ppp [hPa] vv [km] sd [min] rr [mm]
23.03.2019 23:00:00 8,9 3,5 4,4 13,1 11,5 5 3 14 8 S 1024,7 37 0 0,0
23.03.2019 22:00:00 10,6 3,6 4,4 13,3 11,5 8 4 13 7 S 1024,7 40 0 0,0
23.03.2019 21:00:00 13,5 2,4 5,6 13,4 11,5 6 3 12 7 W 1024,2 58 0 0,0
23.03.2019 20:00:00 14,7 3,2 7,2 13,5 11,5 9 5 14 8 W 1023,7 55 0 0,0
23.03.2019 19:00:00 17,6 3,5 14,3 13,6 11,5 12 6 26 14 WNW 1023,4 58 38 0,0
23.03.2019 18:00:00 21,8 3,0 20,7 13,4 11,5 17 9 29 16 W 1022,8 60 60 0,0
23.03.2019 17:00:00 22,8 3,8 24,6 13,2 11,5 19 10 35 19 W 1023,0 60 60 0,0
23.03.2019 16:00:00 23,1 3,1 25,2 12,8 11,5 22 12 34 19 W 1023,4 60 60 0,0
23.03.2019 15:00:00 22,8 3,3 24,6 12,2 11,5 22 12 38 21 W 1023,8 48 60 0,0
23.03.2019 14:00:00 22,1 3,7 23,9 11,7 11,5 24 13 41 22 W 1024,6 45 60 0,0
23.03.2019 13:00:00 21,6 3,7 24,8 11,1 11,5 22 12 37 20 W 1025,5 32 58 0,0
23.03.2019 12:00:00 20,1 4,1 22,1 10,7 11,4 23 13 35 19 W 1026,3 30 60 0,0
23.03.2019 11:00:00 18,0 4,5 20,9 10,4 11,5 18 10 29 16 W 1026,9 20 60 0,4
23.03.2019 10:00:00 16,2 4,2 16,8 10,2 11,4 14 8 24 13 W 1027,4 57 60 0,0
23.03.2019 09:00:00 13,0 4,2 10,6 10,3 11,5 11 6 23 12 WSW 1027,6 41 60 0,0
23.03.2019 08:00:00 6,9 4,7 -0,4 10,4 11,5 10 5 16 8 SW 1027,9 35 50 0,0
23.03.2019 07:00:00 2,6 1,3 -0,6 10,6 11,4 3 1 9 5 S 1028,0 31 0 0,0
23.03.2019 06:00:00 3,3 1,7 -1,0 10,8 11,5 5 3 10 5 S 1027,8 34 0 0,0
23.03.2019 05:00:00 3,1 1,3 -0,6 11,0 11,4 4 2 12 6 S 1027,8 33 0 0,0
23.03.2019 04:00:00 3,7 1,7 -0,4 11,2 11,5 5 3 11 6 S 1028,0 35 0 0,0
23.03.2019 03:00:00 3,5 1,7 -0,3 11,5 11,5 4 2 8 4 S 1028,2 33 0 0,0
23.03.2019 02:00:00 5,2 1,7 2,1 11,6 11,4 5 3 16 9 S 1028,1 32 0 0,0
23.03.2019 01:00:00 5,4 2,2 0,8 11,9 11,5 6 4 14 7 S 1028,0 19 0 0,0
23.03.2019 00:00:00 6,0 2,8 1,1 12,1 11,4 4 2 14 8 SW 1028,1 30 0 0,0
22.03.2019 23:00:00 6,6 2,9 1,6 12,3 11,4 3 2 7 4 S 1028,0 36 0 0,0
22.03.2019 22:00:00 7,7 3,5 2,7 12,5 11,4 4 2 6 3 S 1027,6 32 0 0,0
22.03.2019 21:00:00 10,2 2,8 3,9 12,7 11,4 4 2 10 6 ENE 1027,1 40 0 0,0
22.03.2019 20:00:00 13,1 2,6 5,3 12,7 11,4 8 5 11 6 ENE 1026,5 47 0 0,0
22.03.2019 19:00:00 17,1 2,3 13,9 12,7 11,5 9 5 23 13 E 1025,7 58 37 0,0
22.03.2019 18:00:00 20,2 2,5 18,9 12,6 11,4 15 8 26 14 ENE 1025,4 57 60 0,0
22.03.2019 17:00:00 21,3 2,5 24,1 12,4 11,5 18 10 29 16 E 1025,3 59 60 0,0
22.03.2019 16:00:00 21,6 2,8 25,3 12,0 11,5 19 10 35 19 E 1025,7 45 60 0,0
22.03.2019 15:00:00 21,0 2,3 25,2 11,5 11,5 18 10 33 18 E 1026,3 42 60 0,0
22.03.2019 14:00:00 20,5 3,2 25,6 11,0 11,5 16 9 35 19 ENE 1027,1 35 60 0,0
22.03.2019 13:00:00 18,7 1,2 25,2 10,4 11,4 11 6 24 13 ENE 1028,1 26 60 0,0
22.03.2019 12:00:00 16,4 4,1 20,5 10,0 11,4 5 3 12 7 N 1028,7 20 60 0,0
22.03.2019 11:00:00 13,2 2,1 16,8 9,7 11,5 5 3 14 7 WNW 1029,5 20 60 0,0
22.03.2019 10:00:00 10,0 2,6 12,2 9,5 11,4 5 3 10 5 WNW 1029,8 31 60 0,0
22.03.2019 09:00:00 5,6 1,7 4,2 9,6 11,4 3 2 7 4 W 1029,9 19 60 0,0
22.03.2019 08:00:00 1,4 0,4 -3,5 9,8 11,5 4 2 12 6 WNW 1030,1 16 48 0,0
22.03.2019 07:00:00 -0,5 -1,2 -3,9 10,0 11,5 6 3 8 5 S 1029,7 10 0 0,0
22.03.2019 06:00:00 -0,5 -1,6 -3,7 10,2 11,5 2 1 5 3 W 1029,5 13 0 0,0
22.03.2019 05:00:00 0,1 -1,3 -3,0 10,5 11,5 0 0 8 4 N 1029,3 14 0 0,0
22.03.2019 04:00:00 1,1 -0,4 -2,9 10,7 11,5 5 3 7 4 SW 1029,4 14 0 0,0
22.03.2019 03:00:00 1,2 -0,6 -2,4 10,9 11,5 3 2 6 4 S 1029,3 18 0 0,0
22.03.2019 02:00:00 1,8 -0,1 -1,8 11,2 11,5 3 2 8 4 W 1029,2 19 0 0,0
22.03.2019 01:00:00 2,9 0,6 -1,2 11,4 11,5 5 3 10 5 SSW 1029,1 32 0 0,0
22.03.2019 00:00:00 3,9 0,4 0,0 11,6 11,5 3 2 10 5 SSE 1029,1 25 0 0,0
21.03.2019 23:00:00 5,9 1,0 2,0 11,9 11,5 7 4 16 8 S 1029,0 23 0 0,0
21.03.2019 22:00:00 6,7 1,2 0,8 12,1 11,5 9 5 16 9 S 1029,0 29 0 0,0
21.03.2019 21:00:00 8,2 -0,3 1,5 12,3 11,5 5 3 13 7 WSW 1028,7 38 0 0,0
21.03.2019 20:00:00 10,9 -0,6 5,2 12,4 11,5 5 3 18 10 W 1027,9 41 0 0,0
21.03.2019 19:00:00 13,5 -0,6 11,1 12,4 11,5 10 5 18 10 WSW 1027,3 56 36 0,0
21.03.2019 18:00:00 16,5 -1,6 15,5 12,3 11,5 13 7 22 12 W 1026,9 50 60 0,0
21.03.2019 17:00:00 17,6 -1,1 20,0 12,1 11,5 12 7 23 12 W 1026,7 20 60 0,0
21.03.2019 16:00:00 17,4 -1,8 21,1 11,6 11,5 12 6 24 13 W 1027,1 46 60 0,0
21.03.2019 15:00:00 16,9 -1,3 21,0 11,1 11,5 14 7 29 15 W 1027,5 19 60 0,0
21.03.2019 14:00:00 16,7 -0,1 20,6 10,6 11,5 15 8 29 16 W 1028,1 56 60 0,0
21.03.2019 13:00:00 15,4 -2,1 20,0 10,1 11,5 16 9 29 15 WNW 1028,9 20 60 0,0
21.03.2019 12:00:00 14,3 1,5 17,5 9,6 11,5 19 10 35 19 W 1029,6 20 60 0,0
21.03.2019 11:00:00 12,4 2,3 14,9 9,3 11,5 17 9 31 17 W 1030,0 20 60 0,0
21.03.2019 10:00:00 9,7 1,3 11,8 9,2 11,5 10 5 18 10 W 1030,4 11 60 0,0
21.03.2019 09:00:00 7,2 0,4 4,2 9,3 11,5 8 4 14 7 WSW 1030,8 50 60 0,0
21.03.2019 08:00:00 2,1 -0,3 -4,0 9,5 11,5 9 5 15 8 S 1031,0 35 48 0,0
21.03.2019 07:00:00 -0,8 -1,8 -4,4 9,7 11,5 4 2 12 7 SW 1030,4 45 0 0,0
21.03.2019 06:00:00 -0,7 -2,3 -4,3 9,9 11,5 3 2 12 6 SSW 1030,1 44 0 0,0
21.03.2019 05:00:00 0,4 -0,9 -3,8 10,1 11,5 9 5 14 8 SSE 1029,9 46 0 0,0
21.03.2019 04:00:00 0,4 -1,5 -3,6 10,3 11,5 6 4 13 7 SSW 1029,7 49 0 0,0
21.03.2019 03:00:00 0,5 -1,6 -3,1 10,5 11,5 6 3 13 7 S 1030,3 45 0 0,0
21.03.2019 02:00:00 1,3 -0,9 -2,8 10,8 11,5 8 4 12 6 S 1030,7 41 0 0,0
21.03.2019 01:00:00 2,0 -0,8 -2,4 11,0 11,5 5 3 8 5 S 1030,8 40 0 0,0
21.03.2019 00:00:00 2,8 -0,7 -1,8 11,3 11,5 4 2 9 5 SW 1031,0 47 0 0,0
20.03.2019 23:00:00 4,0 -0,2 -1,4 11,5 11,5 3 2 12 6 SSW 1031,0 53 0 0,0
20.03.2019 22:00:00 5,0 -0,2 -0,5 11,7 11,5 4 2 13 7 W 1031,1 51 0 0,0
20.03.2019 21:00:00 6,8 -0,4 1,4 11,9 11,5 4 2 23 12 NW 1030,8 59 0 0,0
20.03.2019 20:00:00 9,8 -0,7 7,4 12,0 11,5 13 7 23 13 WSW 1030,0 60 0 0,0
20.03.2019 19:00:00 11,4 -1,1 9,7 12,1 11,5 12 6 36 19 W 1029,6 60 35 0,0
20.03.2019 18:00:00 13,4 -2,2 12,8 12,0 11,5 21 12 42 23 W 1029,1 52 60 0,0
20.03.2019 17:00:00 14,1 -2,0 16,0 11,9 11,5 24 13 41 22 W 1029,0 47 60 0,0
20.03.2019 16:00:00 14,1 -1,2 17,2 11,5 11,5 22 12 40 22 W 1029,2 49 60 0,0
20.03.2019 15:00:00 14,4 0,6 17,5 11,1 11,5 23 12 44 24 W 1029,4 48 60 0,0
20.03.2019 14:00:00 13,4 0,1 16,3 10,7 11,6 20 11 44 24 W 1030,0 20 60 0,0
20.03.2019 13:00:00 13,0 0,7 15,7 10,2 11,5 25 14 45 24 WNW 1030,8 44 60 0,0
20.03.2019 12:00:00 11,5 0,3 14,7 9,8 11,5 28 15 42 23 W 1031,1 20 60 0,0
20.03.2019 11:00:00 10,4 2,2 12,2 9,6 11,5 21 12 37 20 W 1031,4 18 60 0,0
20.03.2019 10:00:00 8,4 2,6 8,9 9,5 11,5 21 11 34 19 W 1031,4 45 60 0,0
20.03.2019 09:00:00 6,1 2,4 6,1 9,5 11,6 22 12 37 20 W 1031,4 41 60 0,0
20.03.2019 08:00:00 4,6 2,0 2,7 9,6 11,5 18 10 29 16 W 1031,1 41 45 0,0
20.03.2019 07:00:00 3,5 1,5 2,5 9,8 11,6 16 9 26 14 W 1030,7 40 0 0,0
20.03.2019 06:00:00 3,5 1,9 2,5 9,9 11,5 14 7 25 13 W 1030,4 36 0 0,0
20.03.2019 05:00:00 3,6 2,1 2,7 10,1 11,6 13 7 24 13 W 1029,9 34 0 0,0
20.03.2019 04:00:00 4,1 2,4 3,0 10,2 11,5 16 8 29 16 W 1029,9 34 0 0,0
20.03.2019 03:00:00 5,2 3,0 3,9 10,4 11,6 16 9 27 15 W 1030,1 46 0 0,0
20.03.2019 02:00:00 5,1 3,1 3,0 10,5 11,5 14 7 21 11 W 1030,3 45 0 0,0
20.03.2019 01:00:00 5,2 3,0 4,0 10,7 11,6 11 6 23 12 W 1030,3 44 0 0,0
20.03.2019 00:00:00 5,9 3,4 4,8 10,8 11,6 14 7 25 14 W 1030,2 48 0 0,0
19.03.2019 23:00:00 5,8 3,8 4,1 10,9 11,6 13 7 25 14 W 1029,9 46 0 0,0
19.03.2019 22:00:00 7,3 3,9 5,6 11,1 11,6 18 10 31 17 W 1029,3 60 0 0,0
19.03.2019 21:00:00 6,8 3,6 5,7 11,2 11,6 12 6 43 23 WSW 1028,8 60 0 0,0
19.03.2019 20:00:00 7,8 3,8 6,5 11,3 11,6 24 13 39 21 W 1028,2 60 0 0,0
19.03.2019 19:00:00 8,2 3,8 7,2 11,4 11,6 16 9 37 20 W 1028,0 60 0 0,0
19.03.2019 18:00:00 8,9 4,1 7,9 11,4 11,6 23 12 37 20 WNW 1027,1 60 2 0,0
19.03.2019 17:00:00 9,0 5,0 7,3 11,3 11,5 22 12 45 24 W 1026,9 37 2 0,0
19.03.2019 16:00:00 11,0 4,2 10,8 11,1 11,6 19 10 39 21 W 1026,2 53 0 0,0
19.03.2019 15:00:00 10,2 4,1 10,8 10,9 11,6 23 12 44 24 W 1026,1 58 24 0,0
19.03.2019 14:00:00 9,8 5,2 9,3 10,7 11,6 22 12 35 19 W 1026,4 55 18 0,0
19.03.2019 13:00:00 9,6 4,4 10,1 10,5 11,6 26 14 40 21 W 1026,9 60 10 0,4
19.03.2019 12:00:00 9,4 5,4 7,4 10,4 11,6 24 13 37 20 W 1027,0 45 24 0,2
19.03.2019 11:00:00 7,2 5,3 6,9 10,4 11,6 19 10 39 21 W 1027,1 18 0 0,2
19.03.2019 10:00:00 7,4 5,2 6,5 10,4 11,6 29 16 44 24 WNW 1026,8 52 14 0,0
19.03.2019 09:00:00 6,5 4,8 6,0 10,4 11,6 22 12 46 25 W 1026,5 45 0 0,0
19.03.2019 08:00:00 6,2 4,5 5,6 10,5 11,6 26 14 41 22 W 1025,8 44 0 0,0
19.03.2019 07:00:00 5,9 4,1 5,3 10,6 11,6 24 13 39 21 W 1025,4 60 0 0,0
19.03.2019 06:00:00 5,7 4,2 5,4 10,7 11,6 21 11 35 19 W 1025,3 60 0 0,0
19.03.2019 05:00:00 6,0 4,5 5,0 10,8 11,6 17 9 34 18 W 1025,5 60 0 0,2
19.03.2019 04:00:00 5,9 4,5 5,2 10,9 11,6 24 13 37 20 W 1025,0 35 0 0,0
19.03.2019 03:00:00 6,0 4,6 5,3 11,0 11,6 14 8 38 21 W 1025,4 16 0 0,8
19.03.2019 02:00:00 6,3 4,5 5,5 11,1 11,6 16 9 38 20 W 1025,9 11 0 0,2
19.03.2019 01:00:00 6,9 4,4 5,9 11,2 11,6 18 10 31 17 W 1026,0 16 0 0,2
19.03.2019 00:00:00 7,4 3,3 6,7 11,3 11,6 14 8 42 23 W 1025,9 60 0 0,0
18.03.2019 23:00:00 8,1 4,3 6,2 11,4 11,5 23 12 39 21 W 1026,3 57 0 0,0
18.03.2019 22:00:00 8,1 3,7 6,3 11,5 11,6 16 9 44 24 W 1025,9 60 0 0,2
18.03.2019 21:00:00 10,4 1,2 9,3 11,7 11,6 21 11 36 20 WNW 1025,3 60 0 0,0
18.03.2019 20:00:00 10,3 0,6 9,5 11,8 11,6 19 10 33 18 W 1025,0 60 0 0,0
18.03.2019 19:00:00 10,8 -0,7 9,6 11,8 11,6 19 10 46 25 W 1024,8 60 26 0,0
18.03.2019 18:00:00 12,3 -0,6 11,6 11,8 11,6 30 16 51 28 WNW 1024,4 60 21 0,0
18.03.2019 17:00:00 12,0 -1,5 12,3 11,8 11,6 34 18 51 28 W 1024,4 60 22 0,0
18.03.2019 16:00:00 12,0 0,1 11,7 11,6 11,6 25 13 49 26 NW 1024,5 59 6 0,0
18.03.2019 15:00:00 13,2 -0,1 11,6 11,3 11,6 29 16 54 29 WNW 1025,0 59 21 0,0
18.03.2019 14:00:00 12,3 1,0 11,6 11,0 11,6 33 18 59 32 WNW 1025,5 60 41 0,0
18.03.2019 13:00:00 12,4 2,3 11,1 10,7 11,6 34 19 56 30 WNW 1025,9 58 39 0,0
18.03.2019 12:00:00 11,4 2,7 9,6 10,4 11,6 31 17 53 29 W 1026,6 60 52 0,0
18.03.2019 11:00:00 9,5 1,6 9,8 10,2 11,5 28 15 44 24 WNW 1027,1 20 37 0,0
18.03.2019 10:00:00 8,9 3,3 8,1 10,1 11,5 24 13 45 24 WNW 1026,9 60 39 0,0
18.03.2019 09:00:00 7,4 3,6 6,1 10,2 11,6 26 14 44 24 WNW 1026,5 51 7 0,0
18.03.2019 08:00:00 6,5 2,9 5,7 10,3 11,6 21 12 35 19 W 1025,7 59 0 0,0
18.03.2019 07:00:00 6,5 2,6 6,0 10,4 11,6 25 14 39 21 WNW 1025,2 60 0 0,0
18.03.2019 06:00:00 6,7 2,4 5,9 10,5 11,6 21 12 39 21 W 1024,7 60 0 0,0
18.03.2019 05:00:00 6,6 2,7 5,3 10,6 11,6 18 10 29 15 W 1024,1 60 0 0,0
18.03.2019 04:00:00 6,6 2,7 4,9 10,7 11,6 16 9 31 17 W 1023,8 55 0 0,0
18.03.2019 03:00:00 6,8 2,3 4,6 10,8 11,5 19 10 31 17 W 1024,0 60 0 0,0
18.03.2019 02:00:00 5,6 1,9 4,5 11,0 11,5 16 9 32 18 W 1024,3 60 0 0,0
18.03.2019 01:00:00 6,3 1,6 4,4 11,2 11,6 18 10 27 15 W 1024,6 60 0 0,0
18.03.2019 00:00:00 6,3 1,2 5,2 11,4 11,6 16 9 39 21 W 1024,6 60 0 0,0
17.03.2019 23:00:00 7,9 1,3 7,0 11,5 11,5 25 13 47 26 W 1023,8 60 0 0,0

tt = Température de l'air
td = dewpoint
tt 5cm = Température de l'air 5cm
tt -20cm = Température de l'air -20cm
tt -100cm = Température de l'air -100cm
ff = Vitesse du vent
fx = gusts
dd = Direction du vent
ppp = reduced air pressure
vv = visibility
sd = Ensoleillement
rr = Quantités de précipitations

stations d'obs. à proximité